| time (UTC) | temp F | wind direction | speed MPH | gust MPH | rain 1hr in | rain 24hr in | rain mn in | humidity % | barometer mb |
| 20260504021404 | 86 | 223 | 1.0 | 7.0 | 0.00 | 0.00 | 0.00 | 22 | 1004.8 |
| 20260504020907 | 86 | 247 | 0.0 | 3.0 | 0.00 | 0.00 | 0.00 | 22 | 1004.8 |
| 20260504015404 | 86 | 218 | 1.0 | 10.0 | 0.00 | 0.00 | 0.00 | 21 | 1004.7 |
| 20260504014903 | 87 | 229 | 1.0 | 6.0 | 0.00 | 0.00 | 0.00 | 21 | 1004.6 |
| 20260504014403 | 87 | 244 | 0.0 | 2.0 | 0.00 | 0.00 | 0.00 | 21 | 1004.5 |
| 20260504013905 | 87 | 226 | 0.0 | 8.0 | 0.00 | 0.00 | 0.00 | 20 | 1004.4 |
| 20260504013404 | 87 | 216 | 1.0 | 6.0 | 0.00 | 0.00 | 0.00 | 20 | 1004.4 |
| 20260504012904 | 88 | 236 | 1.0 | 9.0 | 0.00 | 0.00 | 0.00 | 20 | 1004.3 |
| 20260504012404 | 88 | 210 | 1.0 | 6.0 | 0.00 | 0.00 | 0.00 | 20 | 1004.2 |
| 20260504011904 | 89 | 218 | 1.0 | 10.0 | 0.00 | 0.00 | 0.00 | 19 | 1004.2 |
| 20260504011404 | 89 | 222 | 0.0 | 10.0 | 0.00 | 0.00 | 0.00 | 19 | 1004.2 |
| 20260504010904 | 89 | 216 | 1.0 | 8.0 | 0.00 | 0.00 | 0.00 | 19 | 1004.2 |
| 20260504010403 | 89 | 235 | 0.0 | 9.0 | 0.00 | 0.00 | 0.00 | 19 | 1004.2 |
| 20260504005904 | 89 | 219 | 0.0 | 10.0 | 0.00 | 0.00 | 0.00 | 19 | 1004.3 |
| 20260504005403 | 90 | 216 | 0.0 | 7.0 | 0.00 | 0.00 | 0.00 | 19 | 1004.3 |
| 20260504004904 | 90 | 233 | 1.0 | 6.0 | 0.00 | 0.00 | 0.00 | 19 | 1004.4 |
| 20260504004404 | 90 | 219 | 2.0 | 10.0 | 0.00 | 0.00 | 0.00 | 19 | 1004.4 |
| 20260504003903 | 91 | 221 | 1.0 | 7.0 | 0.00 | 0.00 | 0.00 | 19 | 1004.3 |
| 20260504003404 | 91 | 218 | 0.0 | 7.0 | 0.00 | 0.00 | 0.00 | 18 | 1004.1 |
| 20260504002404 | 91 | 211 | 2.0 | 14.0 | 0.00 | 0.00 | 0.00 | 18 | 1004.0 |
| 20260504001904 | 92 | 263 | 0.0 | 5.0 | 0.00 | 0.00 | 0.00 | 18 | 1003.9 |
| 20260504000903 | 93 | 225 | 0.0 | 6.0 | 0.00 | 0.00 | 0.00 | 18 | 1003.8 |
| 20260504000404 | 93 | 225 | 0.0 | 0.0 | 0.00 | 0.00 | 0.00 | 18 | 1003.8 |
| 20260503235904 | 92 | 222 | 0.0 | 3.0 | 0.00 | 0.00 | 0.00 | 18 | 1003.9 |
| 20260503235405 | 93 | 223 | 0.0 | 5.0 | 0.00 | 0.00 | 0.00 | 17 | 1003.9 |
| 20260503234904 | 93 | 221 | 0.0 | 5.0 | 0.00 | 0.00 | 0.00 | 18 | 1003.8 |
| 20260503234405 | 93 | 263 | 0.0 | 0.0 | 0.00 | 0.00 | 0.00 | 18 | 1003.8 |
| 20260503233403 | 93 | 242 | 0.0 | 3.0 | 0.00 | 0.00 | 0.00 | 18 | 1004.0 |
| 20260503232904 | 93 | 242 | 0.0 | 10.0 | 0.00 | 0.00 | 0.00 | 18 | 1004.0 |
| 20260503231403 | 94 | 225 | 1.0 | 13.0 | 0.00 | 0.00 | 0.00 | 18 | 1004.0 |
| 20260503230905 | 93 | 225 | 0.0 | 3.0 | 0.00 | 0.00 | 0.00 | 18 | 1003.9 |
| 20260503230403 | 93 | 212 | 0.0 | 3.0 | 0.00 | 0.00 | 0.00 | 18 | 1004.1 |
| 20260503225404 | 93 | 212 | 0.0 | 1.0 | 0.00 | 0.00 | 0.00 | 19 | 1004.4 |
| 20260503224903 | 93 | 186 | 0.0 | 0.0 | 0.00 | 0.00 | 0.00 | 19 | 1004.6 |
| 20260503224403 | 93 | 186 | 0.0 | 0.0 | 0.00 | 0.00 | 0.00 | 19 | 1004.7 |
| 20260503223905 | 92 | 186 | 0.0 | 0.0 | 0.00 | 0.00 | 0.00 | 19 | 1004.8 |
| 20260503223404 | 92 | 185 | 2.0 | 12.0 | 0.00 | 0.00 | 0.00 | 19 | 1005.0 |
| 20260503222905 | 93 | 186 | 3.0 | 12.0 | 0.00 | 0.00 | 0.00 | 19 | 1005.1 |
| 20260503222403 | 93 | 212 | 0.0 | 0.0 | 0.00 | 0.00 | 0.00 | 19 | 1005.1 |
| 20260503221904 | 92 | 212 | 0.0 | 0.0 | 0.00 | 0.00 | 0.00 | 18 | 1005.3 |
| 20260503221403 | 93 | 211 | 0.0 | 0.0 | 0.00 | 0.00 | 0.00 | 18 | 1005.4 |
| 20260503220904 | 93 | 211 | 0.0 | 5.0 | 0.00 | 0.00 | 0.00 | 19 | 1005.4 |
| 20260503220403 | 93 | 180 | 1.0 | 13.0 | 0.00 | 0.00 | 0.00 | 19 | 1005.5 |
| 20260503215904 | 93 | 184 | 2.0 | 14.0 | 0.00 | 0.00 | 0.00 | 19 | 1005.5 |
| 20260503215404 | 93 | 182 | 2.0 | 12.0 | 0.00 | 0.00 | 0.00 | 19 | 1005.6 |
| 20260503214904 | 92 | 176 | 1.0 | 10.0 | 0.00 | 0.00 | 0.00 | 19 | 1005.6 |
| 20260503214404 | 93 | 175 | 2.0 | 9.0 | 0.00 | 0.00 | 0.00 | 19 | 1005.8 |
| 20260503213404 | 93 | 180 | 1.0 | 13.0 | 0.00 | 0.00 | 0.00 | 20 | 1006.0 |
| 20260503212903 | 93 | 177 | 1.0 | 14.0 | 0.00 | 0.00 | 0.00 | 20 | 1005.9 |
| 20260503212404 | 92 | 169 | 2.0 | 16.0 | 0.00 | 0.00 | 0.00 | 21 | 1006.1 |
| 20260503211904 | 92 | 166 | 2.0 | 12.0 | 0.00 | 0.00 | 0.00 | 21 | 1006.1 |
| 20260503210906 | 92 | 175 | 0.0 | 9.0 | 0.00 | 0.00 | 0.00 | 21 | 1006.4 |
| 20260503210406 | 92 | 176 | 2.0 | 13.0 | 0.00 | 0.00 | 0.00 | 21 | 1006.5 |
| 20260503205905 | 92 | 182 | 0.0 | 0.0 | 0.00 | 0.00 | 0.00 | 21 | 1006.5 |
| 20260503204905 | 92 | 186 | 0.0 | 6.0 | 0.00 | 0.00 | 0.00 | 21 | 1006.6 |
| 20260503202906 | 91 | 165 | 0.0 | 2.0 | 0.00 | 0.00 | 0.00 | 25 | 1007.0 |
| 20260503202406 | 91 | 234 | 1.0 | 12.0 | 0.00 | 0.00 | 0.00 | 25 | 1007.0 |
| 20260503201906 | 90 | 192 | 0.0 | 9.0 | 0.00 | 0.00 | 0.00 | 25 | 1007.1 |
| 20260503201405 | 91 | 192 | 0.0 | 1.0 | 0.00 | 0.00 | 0.00 | 24 | 1007.2 |
| 20260503200905 | 91 | 192 | 0.0 | 6.0 | 0.00 | 0.00 | 0.00 | 24 | 1007.3 |
| 20260503195405 | 90 | 226 | 0.0 | 1.0 | 0.00 | 0.00 | 0.00 | 24 | 1007.7 |
| 20260503194907 | 90 | 226 | 0.0 | 3.0 | 0.00 | 0.00 | 0.00 | 24 | 1007.8 |
| 20260503194405 | 90 | 251 | 0.0 | 2.0 | 0.00 | 0.00 | 0.00 | 24 | 1007.8 |
| 20260503193906 | 90 | 251 | 0.0 | 2.0 | 0.00 | 0.00 | 0.00 | 24 | 1007.9 |
| 20260503193406 | 90 | 167 | 1.0 | 9.0 | 0.00 | 0.00 | 0.00 | 23 | 1008.2 |
| 20260503192906 | 90 | 168 | 0.0 | 0.0 | 0.00 | 0.00 | 0.00 | 24 | 1008.2 |
| 20260503192405 | 90 | 168 | 0.0 | 7.0 | 0.00 | 0.00 | 0.00 | 23 | 1008.3 |
| 20260503191906 | 90 | 150 | 1.0 | 10.0 | 0.00 | 0.00 | 0.00 | 23 | 1008.4 |
| 20260503191406 | 90 | 170 | 0.0 | 3.0 | 0.00 | 0.00 | 0.00 | 24 | 1008.4 |
| 20260503190905 | 89 | 169 | 1.0 | 7.0 | 0.00 | 0.00 | 0.00 | 24 | 1008.5 |
| 20260503190406 | 89 | 170 | 3.0 | 13.0 | 0.00 | 0.00 | 0.00 | 24 | 1008.5 |
| 20260503185405 | 89 | 168 | 0.0 | 5.0 | 0.00 | 0.00 | 0.00 | 24 | 1008.6 |
| 20260503184905 | 89 | 165 | 0.0 | 13.0 | 0.00 | 0.00 | 0.00 | 23 | 1008.8 |
| 20260503184405 | 89 | 173 | 1.0 | 9.0 | 0.00 | 0.00 | 0.00 | 24 | 1008.8 |
| 20260503183905 | 88 | 173 | 1.0 | 12.0 | 0.00 | 0.00 | 0.00 | 24 | 1009.0 |
| 20260503183405 | 88 | 175 | 0.0 | 12.0 | 0.00 | 0.00 | 0.00 | 25 | 1009.0 |
| 20260503182905 | 89 | 174 | 0.0 | 5.0 | 0.00 | 0.00 | 0.00 | 25 | 1009.0 |
| 20260503182406 | 89 | 174 | 0.0 | 10.0 | 0.00 | 0.00 | 0.00 | 25 | 1009.1 |
| 20260503181905 | 88 | 174 | 2.0 | 7.0 | 0.00 | 0.00 | 0.00 | 25 | 1009.3 |
| 20260503181406 | 88 | 159 | 3.0 | 15.0 | 0.00 | 0.00 | 0.00 | 25 | 1009.4 |
| 20260503180905 | 88 | 169 | 2.0 | 15.0 | 0.00 | 0.00 | 0.00 | 25 | 1009.4 |
| 20260503175405 | 87 | 164 | 1.0 | 15.0 | 0.00 | 0.00 | 0.00 | 27 | 1009.4 |
| 20260503174905 | 87 | 159 | 1.0 | 12.0 | 0.00 | 0.00 | 0.00 | 26 | 1009.5 |
| 20260503174405 | 87 | 181 | 2.0 | 16.0 | 0.00 | 0.00 | 0.00 | 26 | 1009.5 |
| 20260503173906 | 86 | 169 | 1.0 | 9.0 | 0.00 | 0.00 | 0.00 | 27 | 1009.5 |
| 20260503173405 | 86 | 161 | 1.0 | 7.0 | 0.00 | 0.00 | 0.00 | 27 | 1009.6 |
| 20260503172906 | 85 | 161 | 1.0 | 10.0 | 0.00 | 0.00 | 0.00 | 29 | 1009.7 |
| 20260503172406 | 85 | 161 | 1.0 | 12.0 | 0.00 | 0.00 | 0.00 | 29 | 1009.8 |
| 20260503171906 | 84 | 114 | 0.0 | 3.0 | 0.00 | 0.00 | 0.00 | 29 | 1009.8 |
| 20260503171405 | 84 | 121 | 0.0 | 3.0 | 0.00 | 0.00 | 0.00 | 29 | 1009.8 |
| 20260503170906 | 85 | 63 | 0.0 | 2.0 | 0.00 | 0.00 | 0.00 | 29 | 1009.8 |
| 20260503170405 | 84 | 184 | 2.0 | 10.0 | 0.00 | 0.00 | 0.00 | 29 | 1009.8 |
| 20260503150905 | 80 | 157 | 0.0 | 2.0 | 0.00 | 0.00 | 0.00 | 32 | 1009.7 |
| 20260503150406 | 80 | 125 | 0.0 | 3.0 | 0.00 | 0.00 | 0.00 | 33 | 1009.7 |
| 20260503131405 | 76 | 199 | 0.0 | 0.0 | 0.00 | 0.00 | 0.00 | 35 | 1009.0 |
| 20260503130905 | 75 | 200 | 0.0 | 0.0 | 0.00 | 0.00 | 0.00 | 35 | 1009.0 |
| 20260503130406 | 74 | 200 | 0.0 | 0.0 | 0.00 | 0.00 | 0.00 | 36 | 1009.0 |
| 20260503090405 | 74 | 200 | 0.0 | 0.0 | 0.00 | 0.00 | 0.00 | 28 | 1008.7 |
| 20260503080405 | 73 | 200 | 0.0 | 0.0 | 0.00 | 0.00 | 0.00 | 29 | 1009.0 |
| 20260503071905 | 73 | 200 | 0.0 | 0.0 | 0.00 | 0.00 | 0.00 | 30 | 1009.2 |
| 20260503071405 | 73 | 200 | 0.0 | 0.0 | 0.00 | 0.00 | 0.00 | 29 | 1009.2 |
| 20260503070905 | 73 | 200 | 0.0 | 0.0 | 0.00 | 0.00 | 0.00 | 29 | 1009.3 |
| 20260503070405 | 73 | 200 | 0.0 | 0.0 | 0.00 | 0.00 | 0.00 | 29 | 1009.2 |
| 20260503053906 | 77 | 200 | 0.0 | 0.0 | 0.00 | 0.00 | 0.00 | 26 | 1008.8 |
| 20260503053405 | 77 | 200 | 0.0 | 0.0 | 0.00 | 0.00 | 0.00 | 26 | 1008.7 |
| 20260503052405 | 77 | 199 | 0.0 | 0.0 | 0.00 | 0.00 | 0.00 | 26 | 1008.7 |
| 20260503051405 | 77 | 199 | 0.0 | 0.0 | 0.00 | 0.00 | 0.00 | 25 | 1008.8 |
| 20260503050904 | 78 | 199 | 0.0 | 0.0 | 0.00 | 0.00 | 0.00 | 25 | 1008.7 |
| 20260503050406 | 78 | 199 | 0.0 | 0.0 | 0.00 | 0.00 | 0.00 | 25 | 1008.7 |
| 20260503045905 | 78 | 199 | 0.0 | 0.0 | 0.00 | 0.00 | 0.00 | 25 | 1008.7 |
| 20260503045405 | 78 | 199 | 0.0 | 0.0 | 0.00 | 0.00 | 0.00 | 25 | 1008.6 |
| 20260503044405 | 79 | 199 | 0.0 | 0.0 | 0.00 | 0.00 | 0.00 | 24 | 1008.6 |
| 20260503043905 | 79 | 199 | 0.0 | 0.0 | 0.00 | 0.00 | 0.00 | 24 | 1008.6 |
| 20260503043406 | 79 | 199 | 0.0 | 0.0 | 0.00 | 0.00 | 0.00 | 24 | 1008.5 |
| 20260503042905 | 79 | 199 | 0.0 | 0.0 | 0.00 | 0.00 | 0.00 | 24 | 1008.4 |
| 20260503041905 | 80 | 199 | 0.0 | 0.0 | 0.00 | 0.00 | 0.00 | 24 | 1008.2 |
| 20260503041405 | 80 | 199 | 0.0 | 0.0 | 0.00 | 0.00 | 0.00 | 24 | 1008.2 |
| 20260503040904 | 80 | 199 | 0.0 | 0.0 | 0.00 | 0.00 | 0.00 | 24 | 1008.1 |
| 20260503040405 | 80 | 199 | 0.0 | 0.0 | 0.00 | 0.00 | 0.00 | 24 | 1008.0 |
| 20260503035905 | 80 | 198 | 0.0 | 0.0 | 0.00 | 0.00 | 0.00 | 24 | 1008.0 |
| 20260503035404 | 80 | 199 | 0.0 | 0.0 | 0.00 | 0.00 | 0.00 | 24 | 1007.9 |
| 20260503034905 | 80 | 199 | 0.0 | 0.0 | 0.00 | 0.00 | 0.00 | 24 | 1007.9 |
| 20260503034405 | 80 | 199 | 0.0 | 0.0 | 0.00 | 0.00 | 0.00 | 24 | 1008.0 |
| 20260503033905 | 80 | 199 | 0.0 | 0.0 | 0.00 | 0.00 | 0.00 | 24 | 1007.8 |
| 20260503032906 | 81 | 199 | 0.0 | 0.0 | 0.00 | 0.00 | 0.00 | 23 | 1007.8 |
| 20260503032405 | 81 | 199 | 0.0 | 0.0 | 0.00 | 0.00 | 0.00 | 23 | 1007.7 |
| 20260503031905 | 82 | 199 | 0.0 | 0.0 | 0.00 | 0.00 | 0.00 | 23 | 1007.6 |
| 20260503030905 | 82 | 199 | 0.0 | 0.0 | 0.00 | 0.00 | 0.00 | 23 | 1007.6 |
| 20260503030405 | 82 | 199 | 0.0 | 0.0 | 0.00 | 0.00 | 0.00 | 22 | 1007.6 |
| 20260503025905 | 82 | 199 | 0.0 | 0.0 | 0.00 | 0.00 | 0.00 | 22 | 1007.8 |
| 20260503025405 | 83 | 199 | 0.0 | 0.0 | 0.00 | 0.00 | 0.00 | 22 | 1007.7 |
| 20260503024905 | 83 | 199 | 0.0 | 0.0 | 0.00 | 0.00 | 0.00 | 21 | 1007.7 |
| 20260503023905 | 84 | 199 | 0.0 | 0.0 | 0.00 | 0.00 | 0.00 | 21 | 1007.5 |
| 20260503023405 | 84 | 199 | 0.0 | 0.0 | 0.00 | 0.00 | 0.00 | 21 | 1007.5 |
| 20260503022905 | 84 | 199 | 0.0 | 0.0 | 0.00 | 0.00 | 0.00 | 21 | 1007.5 |
| 20260503022405 | 84 | 199 | 0.0 | 0.0 | 0.00 | 0.00 | 0.00 | 21 | 1007.4 |
| 20260503021905 | 85 | 199 | 0.0 | 0.0 | 0.00 | 0.00 | 0.00 | 21 | 1007.4 |